Weather Roundup
Issued by NWS Springfield, MO

Home | Current Version | Previous Version | Text Only | Print | Product List | Glossary On
Versions: 1 2 3 4 5 6 7 8 9 10 11 12 13 14 15 16 17 18 19 20 21 22 23 24 25 26 27 28 29 30 31 32 33 34 35 36 37 38 39 40 41 42 43 44 45 46 47 48 49 50
000
NZUS99 KSGF 050007
HRRSGF

HOURLY WEATHER
NATIONAL WEATHER SERVICE SPRINGFIELD MO
700 PM CDT WED MAY 04 2016

......SGF CWA......

CITY           SKY/WX    TMP DP  RH WIND       PRES   REMARKS
SPRINGFIELD    SUNNY     67  38  34 N15       29.92F
6HR MIN TEMP:  67; 6HR MAX TEMP:  71;

JOPLIN         SUNNY     68  39  34 N10       29.96F
6HR MIN TEMP:  68; 6HR MAX TEMP:  72;

WEST PLAINS    SUNNY     67  33  28 NW8G18    29.89R
6HR MIN TEMP:  67; 6HR MAX TEMP:  73;

ROLLA          SUNNY     63  35  35 N10       29.88S
6HR MIN TEMP:  63; 6HR MAX TEMP:  67;

OSAGE BEACH    SUNNY     66  36  32 N8        29.92S
BRANSON        SUNNY     68  37  32 NW13G22   29.93S

......SURROUNDING SGF CWA......

CITY           SKY/WX    TMP DP  RH WIND       PRES   REMARKS
CHANUTE        SUNNY     70  35  27 N12       29.98S
PARSONS        SUNNY     71  41  33 N8        29.99S
COFFEYVILLE    SUNNY     71  39  31 N10       29.98S
EMPORIA        SUNNY     70  34  26 N8G20     29.99F
GROVE OK       SUNNY     72  43  35 NW8       29.97S
ROGERS AR      SUNNY     68  36  30 N13       29.96S
SILOAM SPRINGS SUNNY     68  37  32 NW13      29.97S
HARRISON AR    SUNNY     67  37  33 NW10G18   29.92S
NEAR YELLVILLE SUNNY    N/A N/A N/A N12G18    29.86S

......KANSAS AND MISSOURI......

CITY           SKY/WX    TMP DP  RH WIND       PRES   REMARKS
KANSAS CTY INT SUNNY     67  39  35 N10       29.97S
DOWNTOWN KC    SUNNY     69  35  28 N12G21    29.95F
COLUMBIA       SUNNY     65  36  34 N15       29.91S
SEDALIA        SUNNY     67  36  31 N18       29.95R
ST JOSEPH      SUNNY     68  35  29 N16G22    29.98S
ST LOUIS       PTCLDY    64  34  32 N15G23    29.87R
SPIRIT OF STL  PTCLDY    64  35  34 N13       29.87R
KIRKSVILLE     MOSUNNY   63  34  33 NW10G20   29.93F
WICHITA        SUNNY     72  32  23 N14       30.02S
TOPEKA         SUNNY     69  37  30 NW10G20   29.99S
OLATHE         SUNNY     67  34  29 N15       29.97F

......TENNESSEE......

CITY           SKY/WX    TMP DP  RH WIND       PRES   REMARKS
MEMPHIS        PTCLDY    74  43  32 N10G22    29.78S
NASHVILLE      PTCLDY    61  49  64 N7        29.76R

......ARKANSAS.......

CITY           SKY/WX    TMP DP  RH WIND       PRES   REMARKS
FAYETTEVILLE   SUNNY     68  37  32 N13       29.94S
FT SMITH       SUNNY     75  35  23 N9        29.92R
LITTLE ROCK    SUNNY     77  38  24 N13G22    29.83R

......OKLAHOMA.......

CITY           SKY/WX    TMP DP  RH WIND       PRES   REMARKS
TULSA          SUNNY     74  40  29 N10       29.95S
PONCA CITY     SUNNY     74  35  24 NW12      30.00S
MCALESTER      SUNNY     77  41  27 N10       29.95S
OKLAHOMA CITY  SUNNY     76  43  30 N15       30.00S

......IOWA............

CITY           SKY/WX    TMP DP  RH WIND       PRES   REMARKS
DES MOINES     MOSUNNY   67  31  26 NW14G21   29.94S
QUAD CITIES    SUNNY     62  32  32 NW14G28   29.85R

......ILLINOIS........

CITY           SKY/WX    TMP DP  RH WIND       PRES   REMARKS
QUINCY         MOSUNNY   61  35  37 N12       29.88F
CHICAGO        MOCLDY    45  36  70 NE15      29.83R




USA.gov is the U.S. government's official web portal to all federal, state and local government web resources and services.